TimeCDT,TemperatureF,Dew PointF,Humidity,Sea Level PressureIn,VisibilityMPH,Wind Direction,Wind SpeedMPH,Gust SpeedMPH,PrecipitationIn,Events,Conditions,WindDirDegrees,DateUTC
12:54 AM,30.0,18.0,61,30.01,10.0,South,8.1,-,N/A,,Clear,190,2012-10-08 05:54:00
1:54 AM,30.0,18.0,61,30.00,10.0,South,8.1,-,N/A,,Clear,180,2012-10-08 06:54:00
2:54 AM,30.0,18.0,61,29.98,10.0,South,8.1,-,N/A,,Clear,180,2012-10-08 07:54:00
3:54 AM,28.0,18.0,66,29.96,10.0,South,8.1,-,N/A,,Clear,170,2012-10-08 08:54:00
4:54 AM,28.0,18.0,66,29.95,10.0,South,6.9,-,N/A,,Clear,170,2012-10-08 09:54:00
5:54 AM,28.0,19.0,69,29.95,10.0,South,6.9,-,N/A,,Clear,180,2012-10-08 10:54:00
6:54 AM,30.0,19.0,64,29.94,10.0,South,9.2,-,N/A,,Clear,180,2012-10-08 11:54:00
7:54 AM,32.0,21.0,64,29.93,10.0,South,9.2,-,N/A,,Clear,180,2012-10-08 12:54:00
8:54 AM,37.9,24.1,57,29.92,10.0,South,12.7,-,N/A,,Mostly Cloudy,190,2012-10-08 13:54:00
9:54 AM,46.0,27.0,47,29.89,10.0,SSW,18.4,26.5,N/A,,Clear,200,2012-10-08 14:54:00
10:54 AM,48.9,28.9,46,29.88,10.0,South,16.1,24.2,N/A,,Mostly Cloudy,190,2012-10-08 15:54:00
11:54 AM,52.0,30.0,43,29.87,10.0,SSW,17.3,23.0,N/A,,Overcast,210,2012-10-08 16:54:00
12:54 PM,51.1,32.0,48,29.84,10.0,South,16.1,23.0,N/A,,Overcast,190,2012-10-08 17:54:00
1:54 PM,54.0,33.1,45,29.80,10.0,South,18.4,26.5,N/A,,Overcast,190,2012-10-08 18:54:00
2:54 PM,55.9,33.1,42,29.78,10.0,SSW,18.4,25.3,N/A,,Overcast,200,2012-10-08 19:54:00
3:54 PM,59.0,32.0,36,29.75,10.0,South,13.8,26.5,N/A,,Overcast,190,2012-10-08 20:54:00
4:54 PM,60.1,30.9,33,29.73,10.0,SSW,18.4,28.8,N/A,,Overcast,200,2012-10-08 21:54:00
5:54 PM,59.0,30.9,35,29.75,10.0,SW,15.0,28.8,N/A,,Overcast,220,2012-10-08 22:54:00
6:54 PM,59.0,32.0,36,29.73,10.0,SSW,17.3,25.3,0.00,,Overcast,200,2012-10-08 23:54:00
7:54 PM,57.9,32.0,37,29.73,10.0,SSW,17.3,27.6,N/A,,Overcast,200,2012-10-09 00:54:00
8:54 PM,57.0,32.0,39,29.73,10.0,SSW,16.1,24.2,N/A,,Overcast,200,2012-10-09 01:54:00
9:54 PM,55.9,32.0,40,29.73,10.0,SSW,17.3,28.8,N/A,,Overcast,200,2012-10-09 02:54:00
10:54 PM,55.9,32.0,40,29.73,10.0,SSW,17.3,27.6,N/A,,Overcast,200,2012-10-09 03:54:00